GALAXY 35 (G-35)

Last updated on Thu Nov 21 2024 00:02:45 GMT+0000 (Coordinated Universal Time)

1 54741U 22170A 24324.91944674 -.00000161 00000+0 00000+0 0 9999 2 54741 0.0123 304.9022 0002261 296.3416 56.0971 1.00271467 7138
UTC large
Height (km)
Speed (km/s)
/
Latitude / Longitude
Inclination (degrees)
Orbital Period (minutes)
Azimuth
Elevation
Range (km)
Doppler Factor

Next 0 passes for location: London (51.5072 / 0.1276)

Sorry there are no passes over London.